FW2178 Weather Reports


Display with metric or nautical units.
time (UTC)temp
F
wind
direction
speed
MPH
gust
MPH
rain 1hr
in
rain 24hr
in
rain mn
in
humidity
%
barometer
mb
20260509034429 54 146 0.0 0.0 0.00 0.00 0.00 81 1020.1
20260509034219 54 146 0.0 0.0 0.00 0.00 0.00 80 1020.3
20260509033428 54 146 0.0 0.0 0.00 0.00 0.00 80 1020.0
20260509032928 54 146 0.0 0.0 0.00 0.00 0.00 81 1020.1
20260509032429 54 146 0.0 0.0 0.00 0.00 0.00 80 1019.9
20260509031929 55 146 0.0 0.0 0.00 0.00 0.00 79 1020.0
20260509031430 55 146 0.0 0.0 0.00 0.00 0.00 78 1019.9
20260509030928 55 146 0.0 0.0 0.00 0.00 0.00 79 1020.0
20260509030715 55 146 0.0 0.0 0.00 0.00 0.00 77 1019.9
20260509025928 55 146 0.0 0.0 0.00 0.00 0.00 74 1019.9
20260509025706 55 146 0.0 0.0 0.00 0.00 0.00 75 1020.0
20260509024922 55 146 0.0 0.0 0.00 0.00 0.00 75 1019.9
20260509024450 56 146 0.0 0.0 0.00 0.00 0.00 74 1020.0
20260509023420 56 145 0.0 0.0 0.00 0.00 0.00 73 1019.6
20260509022926 56 146 0.0 0.0 0.00 0.00 0.00 71 1019.8
20260509022422 56 146 0.0 0.0 0.00 0.00 0.00 72 1019.7
20260509021920 57 146 0.0 0.0 0.00 0.00 0.00 71 1019.7
20260509021421 57 146 0.0 0.0 0.00 0.00 0.00 69 1019.8
20260509020920 58 146 0.0 0.0 0.00 0.00 0.00 69 1020.0
20260509020420 58 146 0.0 0.0 0.00 0.00 0.00 69 1019.8
20260509015923 58 145 0.0 0.0 0.00 0.00 0.00 66 1019.8
20260509015421 59 145 0.0 0.0 0.00 0.00 0.00 69 1019.6
20260509014919 59 146 0.0 0.0 0.00 0.00 0.00 66 1019.6
20260509014420 59 147 0.0 0.0 0.00 0.00 0.00 68 1019.7
20260509013919 60 146 0.0 0.0 0.00 0.00 0.00 62 1019.8
20260509013423 60 146 0.0 0.0 0.00 0.00 0.00 60 1019.6
20260509012923 60 149 0.0 0.0 0.00 0.00 0.00 60 1019.8
20260509012421 60 152 0.0 0.0 0.00 0.00 0.00 60 1019.8
20260509012220 60 146 0.0 0.0 0.00 0.00 0.00 62 1019.7
20260509011420 60 154 0.0 0.0 0.00 0.00 0.00 61 1019.8
20260509010920 60 149 0.0 0.0 0.00 0.00 0.00 60 1019.9
20260509010421 60 158 0.0 0.0 0.00 0.00 0.00 59 1019.9
20260509005920 60 153 0.0 0.0 0.00 0.00 0.00 62 1019.9
20260509005419 60 143 0.0 0.0 0.00 0.00 0.00 63 1019.8
20260509004922 60 157 0.0 0.0 0.00 0.00 0.00 58 1019.7
20260509004708 61 146 0.0 0.0 0.00 0.00 0.00 57 1019.7
20260509003921 60 133 0.0 0.0 0.00 0.00 0.00 58 1019.7
20260509003421 60 122 0.0 0.0 0.00 0.00 0.00 65 1019.8
20260509002920 60 171 0.0 0.0 0.00 0.00 0.00 58 1019.7
20260509002708 60 172 0.0 0.0 0.00 0.00 0.00 58 1019.6
20260509001920 60 172 0.0 0.0 0.00 0.00 0.00 58 1019.8
20260509001421 60 174 0.0 0.0 0.00 0.00 0.00 62 1019.8
20260509000920 60 144 0.0 0.0 0.00 0.00 0.00 59 1019.8
20260509000420 60 143 0.0 0.0 0.00 0.00 0.00 60 1020.0
20260508235920 60 126 0.0 0.0 0.00 0.00 0.00 65 1019.9
20260508235421 60 163 0.0 0.0 0.00 0.00 0.00 59 1019.7
20260508234921 60 161 0.0 0.0 0.00 0.00 0.00 60 1019.7
20260508234421 60 142 0.0 0.0 0.00 0.00 0.00 60 1019.7
20260508233922 60 136 0.0 0.0 0.00 0.00 0.00 62 1019.9
20260508233421 60 133 0.0 0.0 0.00 0.00 0.00 61 1019.8
20260508232920 60 120 0.0 0.0 0.00 0.00 0.00 61 1019.8
20260508232421 60 152 0.0 0.0 0.00 0.00 0.00 61 1019.7
20260508231920 60 171 0.0 0.0 0.00 0.00 0.00 59 1019.9
20260508231420 60 83 0.0 0.0 0.00 0.00 0.00 61 1019.6
20260508230920 60 133 0.0 0.0 0.00 0.00 0.00 59 1019.8
20260508230421 59 104 0.0 0.0 0.00 0.00 0.00 64 1019.8
20260508225921 59 121 0.0 0.0 0.00 0.00 0.00 61 1019.7
20260508225713 59 147 0.0 0.0 0.00 0.00 0.00 60 1019.8
20260508224920 59 54 0.0 0.0 0.00 0.00 0.00 61 1019.8
20260508224419 59 148 0.0 0.0 0.00 0.00 0.00 61 1019.9
20260508223919 59 152 0.0 0.0 0.00 0.00 0.00 61 1019.7
20260508223418 59 149 0.0 0.0 0.00 0.00 0.00 61 1020.0
20260508222919 59 256 0.0 0.0 0.00 0.00 0.00 61 1019.8
20260508222418 59 171 0.0 0.0 0.00 0.00 0.00 61 1019.9
20260508221918 59 153 0.0 0.0 0.00 0.00 0.00 62 1019.8
20260508221716 59 162 0.0 0.0 0.00 0.00 0.00 62 1020.1
20260508220919 59 151 0.0 0.0 0.00 0.00 0.00 62 1020.0
20260508220716 59 145 0.0 0.0 0.00 0.00 0.00 60 1019.9
20260508215920 58 160 0.0 0.0 0.00 0.00 0.00 62 1019.8
20260508215420 58 136 0.0 0.0 0.00 0.00 0.00 65 1020.0
20260508215218 58 102 0.0 0.0 0.00 0.00 0.00 63 1019.9
20260508214418 58 151 0.0 0.0 0.00 0.00 0.00 63 1020.0
20260508213918 58 158 0.0 0.0 0.00 0.00 0.00 63 1020.0
20260508213420 57 146 0.0 0.0 0.00 0.00 0.00 64 1020.1
20260508212919 57 134 0.0 0.0 0.00 0.00 0.00 63 1019.9
20260508212419 57 141 0.0 0.0 0.00 0.00 0.00 64 1020.0
20260508212215 57 136 0.0 0.0 0.00 0.00 0.00 64 1019.9
20260508211709 57 127 0.0 0.0 0.00 0.00 0.00 63 1020.0
20260508210924 56 136 0.0 0.0 0.00 0.00 0.00 64 1019.7
20260508210419 57 153 0.0 0.0 0.00 0.00 0.00 64 1020.0
20260508205918 57 152 0.0 0.0 0.00 0.00 0.00 63 1020.0
20260508205419 56 180 0.0 0.0 0.00 0.00 0.00 65 1019.8
20260508204918 56 141 0.0 0.0 0.00 0.00 0.00 64 1020.0
20260508204420 56 145 0.0 0.0 0.00 0.00 0.00 65 1019.9
20260508203917 56 142 0.0 0.0 0.00 0.00 0.00 64 1019.9
20260508203418 56 168 0.0 0.0 0.00 0.00 0.00 65 1019.7
20260508202920 55 171 0.0 0.0 0.00 0.00 0.00 65 1019.7
20260508202418 56 139 0.0 0.0 0.00 0.00 0.00 65 1019.7
20260508201918 55 141 0.0 0.0 0.00 0.00 0.00 65 1019.9
20260508201421 55 138 0.0 0.0 0.00 0.00 0.00 64 1019.6
20260508200919 56 137 0.0 0.0 0.00 0.00 0.00 63 1019.6
20260508200418 56 136 0.0 0.0 0.00 0.00 0.00 64 1019.4
20260508195918 56 139 0.0 0.0 0.00 0.00 0.00 63 1019.5
20260508195707 56 135 0.0 0.0 0.00 0.00 0.00 64 1019.5
20260508195159 55 164 0.0 0.0 0.00 0.00 0.00 65 1019.4
20260508194659 56 147 0.0 0.0 0.00 0.00 0.00 66 1019.6
20260508194200 56 140 0.0 0.0 0.00 0.00 0.00 66 1019.5
20260508193419 55 146 0.0 0.0 0.00 0.00 0.00 67 1019.5
20260508192919 55 156 0.0 0.0 0.00 0.00 0.00 68 1019.4
20260508192418 55 176 0.0 0.0 0.00 0.00 0.00 67 1019.4
20260508192203 55 124 0.0 0.0 0.00 0.00 0.00 68 1019.6
20260508191418 55 144 0.0 0.0 0.00 0.00 0.00 68 1019.3
20260508190918 55 166 0.0 0.0 0.00 0.00 0.00 69 1019.3
20260508190420 55 158 0.0 0.0 0.00 0.00 0.00 69 1019.4
20260508185918 55 140 0.0 0.0 0.00 0.00 0.00 69 1019.3
20260508185419 55 142 0.0 0.0 0.00 0.00 0.00 70 1019.2
20260508184918 55 172 0.0 0.0 0.00 0.00 0.00 69 1019.3
20260508184418 55 166 0.0 0.0 0.00 0.00 0.00 72 1019.4
20260508183917 55 135 0.0 0.0 0.00 0.00 0.00 71 1019.1
20260508183419 54 129 0.0 0.0 0.00 0.00 0.00 72 1019.1
20260508182918 54 132 0.0 0.0 0.00 0.00 0.00 72 1019.2
20260508182419 54 152 0.0 0.0 0.00 0.00 0.00 71 1019.2
20260508181918 54 149 0.0 0.0 0.00 0.00 0.00 73 1019.0
20260508181727 53 151 0.0 0.0 0.00 0.00 0.00 73 1019.0
20260508180918 53 147 0.0 0.0 0.00 0.00 0.00 73 1018.9
20260508180419 53 150 0.0 0.0 0.00 0.00 0.00 72 1019.1
20260508175918 53 164 0.0 0.0 0.00 0.00 0.00 73 1018.8
20260508175715 53 165 0.0 0.0 0.00 0.00 0.00 72 1019.0
20260508174917 53 157 0.0 0.0 0.00 0.00 0.00 72 1018.9
20260508174419 53 162 0.0 0.0 0.00 0.00 0.00 71 1018.6
20260508173918 53 149 0.0 0.0 0.00 0.00 0.00 71 1018.7
20260508173419 54 169 0.0 0.0 0.00 0.00 0.00 70 1018.5
20260508172915 54 132 0.0 0.0 0.00 0.00 0.00 72 1018.5
20260508172417 54 144 0.0 0.0 0.00 0.00 0.00 72 1018.2
20260508171914 54 160 0.0 0.0 0.00 0.00 0.00 72 1018.1
20260508171413 53 141 0.0 0.0 0.00 0.00 0.00 73 1018.2
20260508171203 53 168 0.0 0.0 0.00 0.00 0.00 74 1018.1
20260508170413 53 154 0.0 0.0 0.00 0.00 0.00 73 1018.2
20260508165913 53 150 0.0 0.0 0.00 0.00 0.00 74 1018.1
20260508165411 53 139 0.0 0.0 0.00 0.00 0.00 73 1018.2
20260508164912 53 140 0.0 0.0 0.00 0.00 0.00 75 1018.1
20260508164417 53 151 0.0 0.0 0.00 0.00 0.00 75 1018.2
20260508163911 53 134 0.0 0.0 0.00 0.00 0.00 75 1018.0
20260508163411 53 146 0.0 0.0 0.00 0.00 0.00 76 1018.0
20260508162910 53 173 0.0 0.0 0.00 0.00 0.00 76 1017.6
20260508162411 52 154 0.0 0.0 0.00 0.00 0.00 76 1017.8
20260508161910 53 167 0.0 0.0 0.00 0.00 0.00 77 1017.6
20260508161411 52 153 0.0 0.0 0.00 0.00 0.00 78 1017.9
20260508160916 52 155 0.0 0.0 0.00 0.00 0.00 78 1017.9
20260508160705 52 142 0.0 0.0 0.00 0.00 0.00 78 1017.7
20260508155910 52 163 0.0 0.0 0.00 0.00 0.00 79 1017.7
20260508155657 52 161 0.0 0.0 0.00 0.00 0.00 80 1017.9
20260508155156 52 140 0.0 0.0 0.00 0.00 0.00 81 1017.8
20260508154411 52 145 0.0 0.0 0.00 0.00 0.00 80 1017.8
20260508154209 52 163 0.0 0.0 0.00 0.00 0.00 81 1018.0
20260508153411 52 159 0.0 0.0 0.00 0.00 0.00 80 1018.0
20260508152909 51 141 0.0 0.0 0.00 0.00 0.00 81 1017.8
20260508152411 51 141 0.0 0.0 0.00 0.00 0.00 80 1018.0
20260508151912 51 153 0.0 0.0 0.00 0.00 0.00 84 1017.7
20260508151410 51 152 0.0 0.0 0.00 0.00 0.00 84 1017.8
20260508150909 51 141 0.0 0.0 0.00 0.00 0.00 84 1017.7
20260508150410 51 144 0.0 0.0 0.00 0.00 0.00 86 1017.6
20260508150159 51 146 0.0 0.0 0.00 0.00 0.00 86 1017.7
20260508145659 51 141 0.0 0.0 0.00 0.00 0.00 86 1017.6
20260508144909 51 146 0.0 0.0 0.00 0.00 0.00 87 1017.7
20260508144410 51 147 0.0 0.0 0.00 0.00 0.00 87 1017.5
20260508143908 50 139 0.0 0.0 0.00 0.00 0.00 89 1017.3
20260508143410 50 139 0.0 0.0 0.00 0.00 0.00 90 1017.1
20260508142908 49 144 0.0 0.0 0.00 0.00 0.00 95 1017.0
20260508142409 49 118 0.0 0.0 0.00 0.00 0.00 98 1017.0
20260508141908 49 99 0.0 0.0 0.00 0.00 0.00 98 1016.9
20260508141408 48 64 0.0 0.0 0.00 0.00 0.00 98 1016.8
20260508140907 48 54 0.0 0.0 0.00 0.00 0.00 98 1016.7
20260508140408 49 54 0.0 0.0 0.00 0.00 0.00 99 1016.7
20260508135907 49 54 0.0 0.0 0.00 0.00 0.00 99 1016.6
20260508135408 49 54 0.0 0.0 0.00 0.00 0.00 99 1016.4
20260508134907 48 54 0.0 0.0 0.00 0.00 0.00 99 1016.3
20260508134408 48 54 0.0 0.0 0.00 0.00 0.00 99 1016.2
20260508133907 48 54 0.0 0.0 0.00 0.00 0.00 99 1016.4
20260508133408 48 54 0.0 0.0 0.00 0.00 0.00 99 1016.1
20260508132906 48 55 0.0 0.0 0.00 0.00 0.00 99 1016.1
20260508132408 48 54 0.0 0.0 0.00 0.00 0.00 99 1015.9
20260508131906 48 55 0.0 0.0 0.00 0.00 0.00 99 1016.1
20260508131408 48 54 0.0 0.0 0.00 0.00 0.00 99 1016.0
20260508130907 47 54 0.0 0.0 0.00 0.00 0.00 99 1015.9
20260508130517 47 54 0.0 0.0 0.00 0.00 0.00 99 1015.8
20260508130453 47 55 0.0 0.0 0.00 0.00 0.00 99 1015.8
20260508125408 47 54 0.0 0.0 0.00 0.00 0.00 99 1015.8
20260508124907 47 54 0.0 0.0 0.00 0.00 0.00 99 1015.7
20260508124407 47 55 0.0 0.0 0.00 0.00 0.00 99 1015.7
20260508123907 47 54 0.0 0.0 0.00 0.00 0.00 99 1015.4
20260508123407 47 54 0.0 0.0 0.00 0.00 0.00 99 1015.6
20260508122907 47 54 0.0 0.0 0.00 0.00 0.00 99 1015.7
20260508122408 47 54 0.0 0.0 0.00 0.00 0.00 99 1015.7
20260508121907 46 54 0.0 0.0 0.00 0.00 0.00 99 1015.4
20260508121403 46 55 0.0 0.0 0.00 0.00 0.00 99 1015.3
20260508120903 46 54 0.0 0.0 0.00 0.00 0.00 99 1015.4
20260508120402 46 54 0.0 0.0 0.00 0.00 0.00 99 1015.3
20260508115902 46 54 0.0 0.0 0.00 0.00 0.00 99 1015.7
20260508115401 47 55 0.0 0.0 0.00 0.00 0.00 99 1015.4
20260508114904 47 54 0.0 0.0 0.00 0.00 0.00 99 1015.4
20260508114402 47 54 0.0 0.0 0.00 0.00 0.00 99 1015.4
20260508113902 47 54 0.0 0.0 0.00 0.00 0.00 99 1015.3
20260508113447 47 54 0.0 0.0 0.00 0.00 0.00 99 1015.1
20260508113429 47 54 0.0 0.0 0.00 0.00 0.00 99 1015.3
20260508112403 46 54 0.0 0.0 0.00 0.00 0.00 99 1015.1
20260508111902 47 54 0.0 0.0 0.00 0.00 0.00 99 1015.1
20260508111402 46 54 0.0 0.0 0.00 0.00 0.00 99 1015.0
20260508110903 46 54 0.0 0.0 0.00 0.00 0.00 99 1015.1
20260508110654 46 54 0.0 0.0 0.00 0.00 0.00 99 1015.1
20260508105902 47 54 0.0 0.0 0.00 0.00 0.00 99 1014.8
20260508105402 46 54 0.0 0.0 0.00 0.00 0.00 99 1014.9
20260508105153 46 54 0.0 0.0 0.00 0.00 0.00 99 1015.0
20260508104401 47 45 0.0 0.0 0.00 0.00 0.00 99 1014.8
20260508103902 47 45 0.0 0.0 0.00 0.00 0.00 99 1014.7
20260508103401 47 45 0.0 0.0 0.00 0.00 0.00 99 1014.9
20260508102904 47 45 0.0 0.0 0.00 0.00 0.00 99 1014.9
20260508102402 47 45 0.0 0.0 0.00 0.00 0.00 99 1014.9
20260508102150 47 45 0.0 0.0 0.00 0.00 0.00 99 1014.6
20260508101402 47 45 0.0 0.0 0.00 0.00 0.00 99 1014.7
20260508100910 47 45 0.0 0.0 0.00 0.00 0.00 98 1014.6
20260508100406 47 45 0.0 0.0 0.00 0.00 0.00 98 1014.8
20260508095903 47 45 0.0 0.0 0.00 0.00 0.00 98 1014.7
20260508095402 47 45 0.0 0.0 0.00 0.00 0.00 98 1014.6
20260508094904 47 45 0.0 0.0 0.00 0.00 0.00 98 1014.7
20260508094649 47 45 0.0 0.0 0.00 0.00 0.00 98 1014.7
20260508093902 47 45 0.0 0.0 0.00 0.00 0.00 98 1014.9
20260508093402 47 45 0.0 0.0 0.00 0.00 0.00 98 1014.8
20260508092903 47 45 0.0 0.0 0.00 0.00 0.00 98 1014.5
20260508092401 47 45 0.0 0.0 0.00 0.00 0.00 98 1014.8
20260508091902 47 45 0.0 0.0 0.00 0.00 0.00 98 1014.8
20260508091402 47 44 0.0 0.0 0.00 0.00 0.00 98 1014.8
20260508090903 48 44 0.0 0.0 0.00 0.00 0.00 98 1014.7
20260508090402 48 44 0.0 0.0 0.00 0.00 0.00 98 1014.7
20260508085902 48 44 0.0 0.0 0.00 0.00 0.00 98 1014.6
20260508085402 48 44 0.0 0.0 0.00 0.00 0.00 98 1014.7
20260508084902 48 44 0.0 0.0 0.00 0.00 0.00 98 1014.6
20260508084402 48 44 0.0 0.0 0.00 0.00 0.00 98 1014.6
20260508083902 48 44 0.0 0.0 0.00 0.00 0.00 98 1014.7
20260508083403 48 44 0.0 0.0 0.00 0.00 0.00 98 1014.7
20260508082902 48 44 0.0 0.0 0.00 0.00 0.00 98 1014.6
20260508082402 48 44 0.0 0.0 0.00 0.00 0.00 97 1014.9
20260508081903 48 44 0.0 0.0 0.00 0.00 0.00 97 1014.8
20260508081402 48 44 0.0 0.0 0.00 0.00 0.00 97 1014.9
20260508080902 48 44 0.0 0.0 0.00 0.00 0.00 97 1014.9
20260508080402 48 44 0.0 0.0 0.00 0.00 0.00 97 1014.9
20260508075903 48 42 0.0 0.0 0.00 0.00 0.00 97 1014.9
20260508075402 48 42 0.0 0.0 0.00 0.00 0.00 97 1014.9
20260508074902 48 42 0.0 0.0 0.00 0.00 0.00 97 1015.0
20260508074402 48 42 0.0 0.0 0.00 0.00 0.00 97 1014.9
20260508073902 48 42 0.0 0.0 0.00 0.00 0.00 97 1015.0
20260508073519 48 42 0.0 0.0 0.00 0.00 0.00 97 1014.9
20260508073458 48 42 0.0 0.0 0.00 0.00 0.00 97 1014.6
20260508072402 48 42 0.0 0.0 0.00 0.00 0.00 97 1014.8
20260508071902 48 42 0.0 0.0 0.00 0.00 0.00 97 1014.9
20260508071402 48 42 0.0 0.0 0.00 0.00 0.00 96 1015.1
20260508070902 48 42 0.0 0.0 0.00 0.00 0.00 96 1014.9
20260508070715 48 42 0.0 0.0 0.00 0.00 0.00 96 1014.9
20260508065902 48 42 0.0 0.0 0.00 0.00 0.00 96 1015.1
20260508065654 48 42 0.0 0.0 0.00 0.00 0.00 96 1015.1
20260508064902 49 42 0.0 0.0 0.00 0.00 0.00 96 1015.0
20260508064656 49 42 0.0 0.0 0.00 0.00 0.00 96 1015.0
20260508063902 49 42 0.0 0.0 0.00 0.00 0.00 96 1015.1
20260508063402 49 42 0.0 0.0 0.00 0.00 0.00 96 1015.2
20260508062903 49 42 0.0 0.0 0.00 0.00 0.00 96 1015.1
20260508062402 49 42 0.0 0.0 0.00 0.00 0.00 96 1014.9
20260508061902 49 42 0.0 0.0 0.00 0.00 0.00 95 1015.2
20260508061403 49 42 0.0 0.0 0.00 0.00 0.00 95 1015.1
20260508060902 50 42 0.0 0.0 0.00 0.00 0.00 95 1015.0
20260508060708 50 42 0.0 0.0 0.00 0.00 0.00 95 1015.1
20260508055902 50 42 0.0 0.0 0.00 0.00 0.00 95 1015.0
20260508055402 50 42 0.0 0.0 0.00 0.00 0.00 95 1015.1
20260508054902 50 42 0.0 0.0 0.00 0.00 0.00 95 1015.2
20260508054402 50 42 0.0 0.0 0.00 0.00 0.00 94 1015.0
20260508053902 50 42 0.0 0.0 0.00 0.00 0.00 94 1015.2
20260508053402 50 42 0.0 0.0 0.00 0.00 0.00 93 1015.2
20260508052902 50 42 0.0 0.0 0.00 0.00 0.00 93 1015.3
20260508052657 51 42 0.0 0.0 0.00 0.00 0.00 93 1015.0
20260508051902 51 42 0.0 0.0 0.00 0.00 0.00 93 1015.2
20260508051404 51 42 0.0 0.0 0.00 0.00 0.00 92 1015.1
20260508050902 51 42 0.0 0.0 0.00 0.00 0.00 92 1015.1
20260508050402 51 42 0.0 0.0 0.00 0.00 0.00 92 1015.2
20260508045904 51 42 0.0 0.0 0.00 0.00 0.00 92 1015.0
20260508045402 52 42 0.0 0.0 0.00 0.00 0.00 91 1015.2
20260508045153 52 42 0.0 0.0 0.00 0.00 0.00 91 1015.6
20260508044402 52 42 0.0 0.0 0.00 0.00 0.00 91 1015.3
20260508043902 52 42 0.0 0.0 0.00 0.00 0.00 90 1015.4
20260508043407 52 42 0.0 0.0 0.00 0.00 0.00 90 1015.4
20260508042901 53 42 0.0 0.0 0.00 0.00 0.00 90 1015.3
20260508042404 53 42 0.0 0.0 0.00 0.00 0.00 90 1015.4
20260508042149 53 42 0.0 0.0 0.00 0.00 0.00 90 1015.3
20260508041402 53 42 0.0 0.0 0.00 0.00 0.00 89 1015.3
20260508040902 53 42 0.0 0.0 0.00 0.00 0.00 90 1015.2
20260508040411 53 42 0.0 0.0 0.00 0.00 0.00 89 1015.3
20260508035902 54 42 0.0 0.0 0.00 0.00 0.00 89 1015.1
20260508035402 54 42 0.0 0.0 0.00 0.00 0.00 89 1015.0
20260508034902 54 42 0.0 0.0 0.00 0.00 0.00 90 1015.2